Location: STAR School
(35.3054°N, 111.2976°W)
Time: 11:07:44
(UTC-07:00)

Transit 2A Rocket - Pass Details

Date: 02 June 2019
Orbit: 587 x 917 km, 66.7° (Epoch: 24 June)

Event Time Altitude Azimuth Distance (km) Brightness Sun altitude
Rises 01:11:09 0° 326° (NW) 3,304 8.8 -31.4°
Reaches altitude 10° 01:13:46 10° 321° (NW) 2,315 7.9 -31.3°
Enters shadow 01:16:06 24° 308° (NW) 1,501 6.7 -31.2°
